[[{"header":{"parameterUnit":"m.s-1","parameterCategory":1,"la1":30.2991,"la2":30.254,"lo1":-89.0895,"lo2":-89.0444,"dy":0.0017,"dx":0.0017,"nx":28,"ny":28,"refTime":"2025-03-31T03:00:00:Z","depth":0,"parameterNumber":2,"parameterNumberName":"U-component_of_WINDS"},"data":[0,0,0,0,0,0,0,0,0,0,0,0,0,0,0,0,0,0,0,0,0,0,0,0,0,0,0,0,0,0,0,0,0,0,0,0,0,0,0,0,0,0,0,0,0,0,0,0,0,0,0,0,0,0,0,0,0,0,1.7948,1.7949,0,1.801,1.8011,1.8011,1.7987,1.7985,1.7984,1.7982,1.8047,1.805,1.8053,0,0,0,0,0,0,0,0,0,0,0,0,0,1.7811,1.7814,1.7948,1.7949,1.795,1.801,1.8011,1.8012,1.7987,1.7985,1.7983,1.7982,1.8046,1.8049,1.8053,0,0,0,0,0,0,0,0,0,0,0,0,0,1.7871,1.7814,1.7948,1.7945,1.7945,1.801,1.8011,1.8012,1.7987,1.7985,1.7983,1.7981,1.8044,1.8049,1.8053,1.8126,0,0,1.8068,1.807,0,0,0,0,0,0,0,0,1.7868,1.7877,1.7945,1.7945,1.7946,1.7988,1.7986,1.805,1.7988,1.7971,1.7982,1.798,1.8029,1.8035,1.8051,1.8129,1.8131,1.8068,1.8071,1.8073,1.8074,0,0,0,0,0,0,0,1.7864,1.7874,1.7973,1.7946,1.7946,1.7941,1.7947,1.7998,1.8012,1.7973,1.7971,1.7978,1.8029,1.8047,1.8053,1.8132,1.8068,1.8072,1.8075,1.8077,1.8273,1.8276,0,0,0,0,0,0,1.7859,1.787,1.7971,1.7975,1.7901,1.7945,1.7952,1.7977,1.8011,1.8014,1.798,1.7977,1.804,1.8047,1.8055,1.8142,1.8073,1.8077,1.808,1.8271,1.8274,1.8277,0,0,0,0,0,0,1.7857,1.7869,1.7968,1.7922,1.7934,1.795,1.7978,1.7979,1.7997,1.8017,1.8019,1.7996,1.8039,1.8048,1.8108,1.8144,1.8079,1.8083,1.8268,1.8272,1.8275,1.8318,0,0,0,0,0,0,1.7853,1.7868,1.7895,1.7923,1.7937,1.8021,1.798,1.7982,1.8005,1.8001,1.8032,1.8035,1.8038,1.8102,1.8113,1.8149,1.8087,1.8265,1.827,1.8274,1.8313,1.8322,1.833,0,0,0,0,0,1.7848,1.7904,1.7896,1.7908,1.7971,1.8023,1.8031,1.8032,1.8008,1.8036,1.8049,1.8034,1.8138,1.8108,1.8121,1.8159,1.8263,1.8268,1.8274,1.8309,1.832,1.833,0,0,0,0,0,0,1.788,1.7908,1.7899,1.7966,1.7992,1.8018,1.8053,1.8044,1.8077,1.8072,1.8073,1.808,1.8143,1.8157,1.8122,1.8231,1.8197,1.8205,1.822,1.8231,1.8239,1.8235,1.8091,0,0,0,0,0,1.7895,1.7934,1.7956,1.8013,1.8027,1.8038,1.806,1.8059,1.8086,1.8097,1.8114,1.8142,1.8181,1.8206,1.8243,1.8315,1.8322,1.8348,1.8356,1.8363,1.837,1.8411,1.8423,1.8295,1.8295,1.8295,0,0,1.7926,1.7946,1.7971,1.802,1.804,1.8081,1.8047,1.8092,1.8123,1.8104,1.8162,1.8176,1.8206,1.8273,1.8303,1.8287,1.8407,1.837,1.8375,1.8379,1.8418,1.843,1.844,1.8299,1.8298,1.8297,0,0,1.8004,1.8022,1.8073,1.8094,1.8124,1.8131,1.8144,1.8171,1.818,1.8238,1.8225,1.8262,1.8329,1.8351,1.8371,1.8459,1.8448,1.8471,1.8516,1.8555,1.8565,1.8574,1.8607,1.8618,1.8478,1.8478,1.8479,0,1.8039,1.81,1.81,1.8146,1.8169,1.8153,1.8205,1.8225,1.8266,1.8283,1.8264,1.8348,1.8367,1.8439,1.8461,1.8477,1.8492,1.8468,1.8564,1.8573,1.8581,1.8612,1.8624,1.8481,1.8481,1.8481,1.848,0,1.8142,1.8184,1.8221,1.8262,1.8289,1.8337,1.8345,1.8372,1.8369,1.8379,1.8439,1.8461,1.8503,1.852,1.8517,1.8592,1.8581,1.8563,1.8529,1.8596,1.8625,1.8637,1.8485,1.8484,1.8483,1.8483,0,0,1.8241,1.8282,1.8295,1.8314,1.8347,1.8381,1.8429,1.8469,1.8493,1.8523,1.8564,1.8621,1.8605,1.8628,1.8627,1.8662,1.8731,1.8639,1.864,1.8656,1.8817,1.8831,1.8844,1.8723,1.8726,1.8727,1.8814,0,1.8322,1.8406,1.8408,1.8486,1.8526,1.8513,1.8555,1.8581,1.8591,1.8627,1.8639,1.868,1.8654,1.8668,1.8702,1.8716,1.8763,1.8709,1.8763,1.8765,1.8756,1.8859,1.8874,1.8955,1.8826,1.8828,1.8829,0,1.8428,1.8461,1.8543,1.8571,1.8588,1.8626,1.8664,1.8698,1.8728,1.8733,1.8759,1.8754,1.8804,1.8768,1.8838,1.8801,1.8823,1.8833,1.8836,1.8842,1.8801,1.8869,1.8981,1.8993,1.8847,1.8845,1.8844,0,1.8493,1.8558,1.8616,1.8632,1.8667,1.8694,1.871,1.8736,1.8761,1.8795,1.8811,1.885,1.8871,1.8902,1.8908,1.8881,1.8978,1.8942,1.8985,1.8985,1.9006,1.9005,1.9125,1.9019,1.9019,1.9019,1.9019,0,1.8584,1.8634,1.8646,1.8681,1.8738,1.874,1.8797,1.881,1.8835,1.8873,1.8864,1.89,1.8906,1.8944,1.8949,1.9006,1.9016,1.9022,1.9023,1.9024,1.9023,1.9038,1.9033,1.9022,1.9021,1.9021,1.902,0,1.8666,1.8676,1.8738,1.8766,1.8774,1.8815,1.8839,1.8874,1.8883,1.8933,1.8944,1.896,1.9004,1.9013,1.9065,1.9069,1.9138,1.9133,1.9128,1.9128,1.917,1.9166,1.9305,1.9323,1.9205,1.9206,1.9207,0,1.8723,1.8762,1.8795,1.882,1.8838,1.8878,1.8904,1.8907,1.8934,1.8971,1.9002,1.9045,1.908,1.9152,1.9168,1.9208,1.9205,1.925,1.9211,1.921,1.9207,1.9204,1.9209,1.9258,1.9259,1.926,1.9261,0,1.8825,1.8828,1.8865,1.8904,1.8935,1.8966,1.8995,1.9016,1.9024,1.9055,1.9101,1.9128,1.9182,1.9225,1.9266,1.9283,1.9274,1.9274,1.9286,1.9287,1.9283,1.9287,1.915,1.927,1.927,1.9269,1.9268,1.9268,1.8897,1.8931,1.896,1.9002,1.9025,1.9053,1.9087,1.9101,1.9139,1.9183,1.9184,1.9234,1.9263,1.9316,1.9336,1.9376,1.9361,1.9379,1.9383,1.9388,1.9392,1.9276,1.9383,1.9383,1.9382,1.9382,1.9382,0,1.8998,1.9017,1.9055,1.9097,1.913,1.9119,1.9151,1.918,1.9224,1.9252,1.9287,1.934,1.9382,1.9402,1.9445,1.9473,1.947,1.9484,1.9482,1.9486,1.9402,1.9388,1.9485,1.9485,1.9485,1.9485,1.9485,1.9485,1.9055,1.9113,1.912,1.919,1.9208,1.9257,1.9276,1.9302,1.9325,1.9385,1.942,1.9433,1.9458,1.9502,1.9541,1.9546,1.9562,1.9579,1.9582,1.9503,1.9492,1.9482,1.9469,1.9582,1.9582,1.9663,1.9664,1.9664]},{"header":{"parameterUnit":"m.s-1","parameterCategory":1,"la1":30.2991,"la2":30.254,"lo1":-89.0895,"lo2":-89.0444,"dy":0.0017,"dx":0.0017,"nx":28,"ny":28,"refTime":"2025-03-31T03:00:00:Z","depth":0,"parameterNumber":3,"parameterNumberName":"V-component_of_WINDS"},"data":[0,0,0,0,0,0,0,0,0,0,0,0,0,0,0,0,0,0,0,0,0,0,0,0,0,0,0,0,0,0,0,0,0,0,0,0,0,0,0,0,0,0,0,0,0,0,0,0,0,0,0,0,0,0,0,0,0,0,4.56,4.5602,0,4.5747,4.5749,4.5751,4.5767,4.5765,4.5764,4.5763,4.5915,4.5921,4.5926,0,0,0,0,0,0,0,0,0,0,0,0,0,4.5335,4.534,4.56,4.5602,4.5604,4.5747,4.5749,4.5751,4.5767,4.5765,4.5764,4.5762,4.5913,4.592,4.5926,0,0,0,0,0,0,0,0,0,0,0,0,0,4.5463,4.5342,4.56,4.5629,4.5633,4.5747,4.5749,4.5752,4.5768,4.5765,4.5763,4.5761,4.5911,4.5919,4.5927,4.6022,0,0,4.5952,4.5956,0,0,0,0,0,0,0,0,4.5456,4.5473,4.5623,4.5627,4.5632,4.5736,4.5712,4.5842,4.5768,4.5716,4.5762,4.576,4.5858,4.587,4.5903,4.603,4.6036,4.5953,4.5958,4.5961,4.5964,0,0,0,0,0,0,0,4.5447,4.5467,4.5658,4.5625,4.563,4.5636,4.5651,4.5737,4.5798,4.5721,4.5722,4.5739,4.586,4.5895,4.5906,4.6038,4.5953,4.596,4.5965,4.5968,4.6253,4.6256,0,0,0,0,0,0,4.5432,4.5459,4.5654,4.5663,4.5537,4.5642,4.566,4.5705,4.5797,4.5809,4.5741,4.574,4.5882,4.5897,4.5912,4.6031,4.5961,4.5969,4.5974,4.6251,4.6254,4.6257,0,0,0,0,0,0,4.5427,4.545,4.5648,4.5561,4.5587,4.5649,4.57,4.5709,4.5744,4.5812,4.5824,4.5766,4.5881,4.59,4.5995,4.6037,4.5973,4.598,4.6248,4.6252,4.6255,4.6269,0,0,0,0,0,0,4.5419,4.5447,4.5483,4.5562,4.5592,4.5728,4.5702,4.5714,4.5758,4.5757,4.5838,4.5849,4.588,4.5983,4.6003,4.6047,4.5987,4.6244,4.6249,4.6254,4.6265,4.6273,4.628,0,0,0,0,0,4.541,4.5481,4.5485,4.5509,4.5638,4.573,4.5747,4.5781,4.5761,4.5799,4.5843,4.5847,4.6028,4.5992,4.6016,4.6062,4.6242,4.6248,4.6254,4.6262,4.6271,4.6279,0,0,0,0,0,0,4.5406,4.5492,4.5497,4.5596,4.5656,4.5732,4.5781,4.5789,4.5856,4.5852,4.5892,4.591,4.6004,4.6042,4.6001,4.616,4.6133,4.6144,4.6132,4.6141,4.6148,4.6138,4.5993,0,0,0,0,0,4.5417,4.5484,4.5555,4.5636,4.5666,4.5718,4.5759,4.578,4.5844,4.5869,4.592,4.5982,4.6053,4.6099,4.6168,4.627,4.629,4.6314,4.6321,4.6327,4.6336,4.6396,4.6408,4.6277,4.6276,4.6276,0,0,4.544,4.5495,4.5535,4.5637,4.5685,4.5755,4.5739,4.5813,4.5865,4.588,4.5973,4.6013,4.6085,4.6184,4.6231,4.6219,4.6377,4.6334,4.6338,4.6345,4.6403,4.6415,4.6426,4.6281,4.628,4.6279,0,0,4.5517,4.5565,4.5639,4.5688,4.5761,4.5796,4.5813,4.5889,4.5916,4.601,4.6023,4.6087,4.6208,4.6259,4.6301,4.64,4.6407,4.6422,4.646,4.6517,4.6528,4.6537,4.6574,4.6587,4.643,4.6431,4.6431,0,4.5537,4.5642,4.5675,4.575,4.5795,4.5811,4.5887,4.5933,4.6026,4.6057,4.6043,4.6197,4.6246,4.6359,4.6383,4.6416,4.6439,4.6413,4.6523,4.6533,4.6542,4.6579,4.6592,4.6432,4.6432,4.6432,4.6431,0,4.5663,4.5736,4.5786,4.5875,4.5926,4.6001,4.6047,4.6095,4.6111,4.6148,4.6245,4.6304,4.6387,4.6415,4.6432,4.6531,4.6522,4.6515,4.6489,4.6556,4.659,4.6604,4.6434,4.6433,4.6433,4.6433,0,0,4.5743,4.585,4.5868,4.591,4.5993,4.605,4.6126,4.6207,4.6248,4.6311,4.6377,4.648,4.6475,4.6522,4.6545,4.6595,4.6672,4.6583,4.6585,4.6599,4.6788,4.6794,4.6809,4.6677,4.668,4.6682,4.6783,0,4.5831,4.5966,4.6,4.6116,4.6185,4.6202,4.6268,4.6327,4.6363,4.6428,4.6468,4.6541,4.6527,4.6557,4.6607,4.6652,4.6711,4.6645,4.6741,4.6744,4.6724,4.6827,4.6833,4.6925,4.6796,4.6799,4.68,0,4.5953,4.6019,4.6142,4.6218,4.6248,4.6307,4.6385,4.6445,4.6513,4.6536,4.659,4.6608,4.669,4.6659,4.6773,4.6727,4.6768,4.6797,4.6801,4.6813,4.6777,4.6843,4.6955,4.697,4.6821,4.682,4.6818,0,4.6001,4.6121,4.6211,4.6245,4.6335,4.6377,4.6417,4.6482,4.6529,4.6597,4.6628,4.6704,4.6747,4.6806,4.6846,4.6819,4.6957,4.6929,4.698,4.698,4.701,4.7007,4.7132,4.7033,4.7033,4.7033,4.7032,0,4.6097,4.6172,4.6234,4.6289,4.6374,4.6412,4.6496,4.6536,4.6594,4.6659,4.6678,4.6738,4.6786,4.6853,4.6884,4.6975,4.6994,4.7016,4.7024,4.7015,4.7013,4.7044,4.7039,4.7036,4.7036,4.7035,4.7034,0,4.6166,4.6209,4.6309,4.6386,4.6408,4.6467,4.6534,4.6589,4.6626,4.6708,4.6729,4.6788,4.6868,4.6913,4.7014,4.7035,4.7137,4.7141,4.7114,4.7118,4.7168,4.7163,4.7318,4.7341,4.7225,4.7226,4.7227,0,4.6225,4.6283,4.6367,4.6412,4.6452,4.6523,4.6571,4.6611,4.6661,4.6743,4.6789,4.6871,4.6938,4.7066,4.7118,4.7196,4.7203,4.7252,4.7215,4.7205,4.7206,4.7203,4.721,4.7259,4.726,4.7261,4.7261,0,4.6326,4.6346,4.6414,4.6491,4.6548,4.661,4.6672,4.6707,4.6758,4.6813,4.6895,4.6947,4.7051,4.7133,4.7215,4.7257,4.7269,4.7272,4.7289,4.7282,4.7265,4.7277,4.7134,4.7269,4.7268,4.7268,4.7267,4.7267,4.6394,4.6447,4.6515,4.6591,4.6642,4.67,4.6756,4.68,4.6869,4.6957,4.6976,4.7064,4.7132,4.7244,4.7288,4.7358,4.7349,4.7372,4.7379,4.7384,4.7387,4.7252,4.7373,4.7373,4.7373,4.7373,4.7372,0,4.6498,4.6542,4.6612,4.6698,4.6759,4.6763,4.6832,4.6883,4.696,4.7022,4.7088,4.7184,4.7263,4.7322,4.7404,4.7449,4.7456,4.7469,4.7467,4.7477,4.7389,4.7368,4.7462,4.7462,4.7462,4.7462,4.7462,4.7462,4.6559,4.665,4.6678,4.6795,4.684,4.6925,4.6965,4.7019,4.7069,4.7175,4.7241,4.7279,4.7341,4.7427,4.7501,4.7516,4.7546,4.7559,4.7575,4.7492,4.7483,4.7474,4.7454,4.7565,4.7565,4.7658,4.7658,4.7659]}]]